When you browse on this site, cookies collect data to enhance your experience and personalize the content and advertising you see.
Visit our Privacy Policy to learn more. By continuing to use the site, you agree to this use of cookies and data.
  • In Österreich
  • Länderverzeichnis
  • Für 7 Tage
  • Wassertemperatur
  • Satellitenkarten
  • Wetterkarte
  • News
  • Widgets
  • user-avatar
    Anmelden

    Stündliche Wetter Concord

    Heute, 24 April, Mittwoch

    Zeit Temperatur Niederschläge Wind Luftdruck Luftfeuchtigkeit
    00:00 +18°C° 0 mm 2 m/S 743 mmHg 73%
    01:00 +18°C° 0 mm 2 m/S 742 mmHg 77%
    02:00 +17°C° 0 mm 2 m/S 742 mmHg 77%
    03:00 +17°C° 0 mm 2 m/S 742 mmHg 78%
    04:00 +16°C° 0 mm 2 m/S 742 mmHg 78%
    05:00 +18°C° 0 mm 1 m/S 742 mmHg 78%
    06:00 +19°C° 0 mm 1 m/S 742 mmHg 78%
    07:00 +19°C° 0 mm 1 m/S 742 mmHg 78%
    08:00 +22°C° 0 mm 1 m/S 743 mmHg 69%
    09:00 +24°C° 0 mm 1 m/S 743 mmHg 60%
    10:00 +27°C° 0 mm 1 m/S 743 mmHg 51%
    11:00 +28°C° 0 mm 1 m/S 743 mmHg 47%
    12:00 +29°C° 0 mm 2 m/S 742 mmHg 42%
    13:00 +30°C° 0 mm 2 m/S 742 mmHg 38%
    14:00 +30°C° 0 mm 2 m/S 741 mmHg 39%
    15:00 +30°C° 0 mm 2 m/S 741 mmHg 39%
    16:00 +30°C° 0 mm 3 m/S 740 mmHg 40%
    17:00 +28°C° 0 mm 2 m/S 740 mmHg 45%
    18:00 +26°C° 0 mm 2 m/S 740 mmHg 50%
    19:00 +24°C° 0 mm 2 m/S 740 mmHg 56%
    20:00 +24°C° 0 mm 2 m/S 741 mmHg 57%
    21:00 +23°C° 0 mm 2 m/S 741 mmHg 59%
    22:00 +21°C° 0 mm 2 m/S 741 mmHg 60%
    23:00 +20°C° 0 mm 2 m/S 741 mmHg 64%

    Morgen, 25 April, Donnerstag

    Zeit Temperatur Niederschläge Wind Luftdruck Luftfeuchtigkeit
    00:00 +20°C° 0 mm 2 m/S 741 mmHg 68%
    01:00 +19°C° 0 mm 2 m/S 741 mmHg 72%
    02:00 +18°C° 0 mm 2 m/S 741 mmHg 74%
    03:00 +18°C° 0 mm 2 m/S 741 mmHg 76%
    04:00 +18°C° 0 mm 1 m/S 740 mmHg 78%
    05:00 +18°C° 0 mm 1 m/S 741 mmHg 78%
    06:00 +19°C° 0 mm 1 m/S 741 mmHg 77%
    07:00 +19°C° 0 mm 1 m/S 741 mmHg 76%
    08:00 +21°C° 0 mm 1 m/S 741 mmHg 70%
    09:00 +23°C° 0 mm 1 m/S 742 mmHg 64%
    10:00 +24°C° 0 mm 0 m/S 742 mmHg 58%
    11:00 +26°C° 0 mm 1 m/S 741 mmHg 55%
    12:00 +27°C° 0 mm 1 m/S 741 mmHg 52%
    13:00 +28°C° 0 mm 2 m/S 741 mmHg 49%
    14:00 +28°C° 0 mm 2 m/S 740 mmHg 46%
    15:00 +29°C° 0 mm 3 m/S 740 mmHg 44%
    16:00 +30°C° 0 mm 3 m/S 739 mmHg 42%
    17:00 +28°C° 0 mm 3 m/S 739 mmHg 46%
    18:00 +26°C° 0 mm 4 m/S 739 mmHg 49%
    19:00 +25°C° 0 mm 4 m/S 739 mmHg 53%
    20:00 +23°C° 0 mm 4 m/S 739 mmHg 55%
    21:00 +24°C° 0 mm 3 m/S 740 mmHg 58%
    22:00 +22°C° 0 mm 3 m/S 740 mmHg 60%
    23:00 +22°C° 0.1 mm 4 m/S 739 mmHg 64%

    übermorgen, 26 April, Freitag

    Zeit Temperatur Niederschläge Wind Luftdruck Luftfeuchtigkeit
    00:00 +21°C° 0.1 mm 4 m/S 739 mmHg 67%
    01:00 +20°C° 0.1 mm 4 m/S 739 mmHg 71%
    02:00 +20°C° 0.1 mm 4 m/S 738 mmHg 75%
    03:00 +20°C° 0.1 mm 4 m/S 737 mmHg 79%
    04:00 +19°C° 0.1 mm 3 m/S 736 mmHg 83%
    05:00 +19°C° 0 mm 4 m/S 736 mmHg 82%
    06:00 +19°C° 0 mm 5 m/S 736 mmHg 81%
    07:00 +19°C° 0 mm 5 m/S 736 mmHg 80%
    08:00 +19°C° 0.3 mm 6 m/S 737 mmHg 81%
    09:00 +19°C° 0.3 mm 6 m/S 737 mmHg 81%
    10:00 +18°C° 0.3 mm 7 m/S 737 mmHg 82%
    11:00 +20°C° 0.6 mm 6 m/S 737 mmHg 77%
    12:00 +21°C° 0.6 mm 6 m/S 737 mmHg 71%
    13:00 +23°C° 0.6 mm 5 m/S 738 mmHg 66%
    14:00 +23°C° 0.1 mm 5 m/S 738 mmHg 60%
    15:00 +25°C° 0.1 mm 5 m/S 738 mmHg 53%
    16:00 +24°C° 0.1 mm 6 m/S 738 mmHg 47%
    17:00 +22°C° 0 mm 5 m/S 739 mmHg 51%
    18:00 +20°C° 0 mm 4 m/S 739 mmHg 56%
    19:00 +18°C° 0 mm 3 m/S 740 mmHg 61%
    20:00 +17°C° 0 mm 3 m/S 741 mmHg 63%
    21:00 +16°C° 0 mm 2 m/S 742 mmHg 65%
    22:00 +15°C° 0 mm 2 m/S 743 mmHg 66%
    23:00 +14°C° 0 mm 2 m/S 743 mmHg 67%

    27 April, Samstag

    Zeit Temperatur Niederschläge Wind Luftdruck Luftfeuchtigkeit
    00:00 +14°C° 0 mm 2 m/S 743 mmHg 68%
    01:00 +13°C° 0 mm 2 m/S 743 mmHg 69%
    02:00 +13°C° 0 mm 1 m/S 743 mmHg 70%
    03:00 +12°C° 0 mm 1 m/S 743 mmHg 70%
    04:00 +12°C° 0 mm 1 m/S 742 mmHg 70%
    05:00 +13°C° 0 mm 1 m/S 743 mmHg 69%
    06:00 +14°C° 0 mm 1 m/S 744 mmHg 67%
    07:00 +15°C° 0 mm 1 m/S 744 mmHg 65%
    08:00 +18°C° 0 mm 1 m/S 744 mmHg 59%
    09:00 +19°C° 0 mm 0 m/S 745 mmHg 52%
    10:00 +22°C° 0 mm 0 m/S 745 mmHg 45%
    11:00 +24°C° 0 mm 1 m/S 744 mmHg 42%
    12:00 +25°C° 0 mm 1 m/S 744 mmHg 40%
    13:00 +26°C° 0 mm 2 m/S 743 mmHg 37%
    14:00 +26°C° 0 mm 2 m/S 743 mmHg 38%
    15:00 +26°C° 0 mm 3 m/S 742 mmHg 38%
    16:00 +26°C° 0 mm 3 m/S 742 mmHg 39%
    17:00 +25°C° 0 mm 3 m/S 742 mmHg 44%
    18:00 +22°C° 0 mm 3 m/S 742 mmHg 49%
    19:00 +20°C° 0 mm 2 m/S 742 mmHg 54%
    20:00 +20°C° 0 mm 3 m/S 742 mmHg 54%
    21:00 +19°C° 0 mm 3 m/S 743 mmHg 54%
    22:00 +19°C° 0 mm 4 m/S 743 mmHg 53%
    23:00 +18°C° 0 mm 4 m/S 743 mmHg 54%

    28 April, Sonntag

    Zeit Temperatur Niederschläge Wind Luftdruck Luftfeuchtigkeit
    00:00 +17°C° 0 mm 4 m/S 742 mmHg 56%
    01:00 +15°C° 0 mm 4 m/S 742 mmHg 57%
    02:00 +15°C° 0 mm 4 m/S 742 mmHg 63%
    03:00 +14°C° 0 mm 4 m/S 742 mmHg 70%
    04:00 +14°C° 0 mm 3 m/S 742 mmHg 76%
    05:00 +15°C° 0 mm 4 m/S 742 mmHg 78%
    06:00 +15°C° 0 mm 4 m/S 742 mmHg 80%
    07:00 +16°C° 0 mm 5 m/S 742 mmHg 83%
    08:00 +19°C° 0 mm 6 m/S 742 mmHg 78%
    09:00 +21°C° 0 mm 6 m/S 742 mmHg 73%
    10:00 +23°C° 0 mm 7 m/S 742 mmHg 68%
    11:00 +24°C° 0 mm 7 m/S 741 mmHg 64%
    12:00 +26°C° 0 mm 6 m/S 741 mmHg 59%
    13:00 +28°C° 0 mm 6 m/S 741 mmHg 55%
    14:00 +27°C° 0.1 mm 6 m/S 741 mmHg 53%
    15:00 +27°C° 0.1 mm 5 m/S 741 mmHg 52%
    16:00 +27°C° 0.1 mm 4 m/S 741 mmHg 51%
    17:00 +25°C° 0 mm 4 m/S 742 mmHg 51%
    18:00 +21°C° 0 mm 5 m/S 743 mmHg 50%
    19:00 +19°C° 0 mm 5 m/S 744 mmHg 50%
    20:00 +16°C° 0 mm 5 m/S 745 mmHg 50%
    21:00 +15°C° 0 mm 5 m/S 746 mmHg 50%
    22:00 +13°C° 0 mm 5 m/S 747 mmHg 50%
    23:00 +12°C° 0 mm 5 m/S 748 mmHg 53%

    29 April, Montag

    Zeit Temperatur Niederschläge Wind Luftdruck Luftfeuchtigkeit
    00:00 +10°C° 0 mm 5 m/S 748 mmHg 56%
    01:00 +8°C° 0 mm 5 m/S 748 mmHg 59%
    02:00 +7°C° 0 mm 4 m/S 749 mmHg 60%
    03:00 +6°C° 0 mm 4 m/S 749 mmHg 61%
    04:00 +7°C° 0 mm 3 m/S 750 mmHg 62%
    05:00 +6°C° 0 mm 4 m/S 751 mmHg 62%
    06:00 +6°C° 0 mm 4 m/S 751 mmHg 61%
    07:00 +6°C° 0 mm 4 m/S 752 mmHg 61%
    08:00 +8°C° 0 mm 4 m/S 752 mmHg 56%
    09:00 +11°C° 0 mm 4 m/S 752 mmHg 51%
    10:00 +13°C° 0 mm 4 m/S 753 mmHg 47%
    11:00 +14°C° 0 mm 4 m/S 752 mmHg 43%
    12:00 +17°C° 0 mm 3 m/S 752 mmHg 39%
    13:00 +18°C° 0 mm 3 m/S 752 mmHg 35%
    14:00 +19°C° 0 mm 3 m/S 751 mmHg 36%
    15:00 +19°C° 0 mm 3 m/S 751 mmHg 36%
    16:00 +19°C° 0 mm 3 m/S 751 mmHg 37%
    17:00 +18°C° 0 mm 3 m/S 751 mmHg 43%
    18:00 +16°C° 0 mm 2 m/S 751 mmHg 49%
    19:00 +15°C° 0 mm 2 m/S 752 mmHg 55%
    20:00 +13°C° 0 mm 2 m/S 752 mmHg 57%
    21:00 +12°C° 0 mm 2 m/S 753 mmHg 59%
    22:00 +10°C° 0 mm 2 m/S 753 mmHg 61%
    23:00 +10°C° 0 mm 2 m/S 753 mmHg 65%
    Mehr zeigen